ARIANE 44L DEB, 24722

Orbit data source: Space-Track

ARIANE 44L DEB, 24722 is space debris in HEO originally from a launch on Tue, 15 Jan 1991 UTC launched from the French Guiana (FRGUI). Debris objects in space refer to the collection of defunct objects orbiting the Earth. Examples of debris include non-operational satellites, rocket bodies, and fragments generated from explosions, collisions, or faulty payload assembly.

Loading next visibility...
Identifier
24722, 1991-003E
Orbit
HEO
Country
Flag of FRFR
Related business
Manufacturer
Unknown
Mission
Spacecraft
Bus & Motor
Unknown
Mass
Unknown
Launch date (UTC)
1991-01-15 (35 years ago)
Launch vehicle
Unknown
Launch site
French Guiana (FRGUI)
Object type
Payload
Rocket body
Debris
Shape & HBR
Unknown shape, 1.1 m
Radar Cross Section
Medium (>0.1 m² and <1 m²)

Expand to show TLE details & history
Last TLE update: 1 year ago

TLE from 1 year ago
0 ARIANE 44L DEB
1 24722U 91003E   25106.99560617  .00001440  00000-0  62769-2 0  9998
2 24722   7.1662 311.0575 6540061 281.5406  16.2222  3.09336397125366
Epoch: 2025-04-16T23:53Z
TLE epoch observation values (Epoch: 2025-04-16T23:53:40.373Z)
Latitude
-0°
Longitude
107.09134°
Altitude
3,666.742 km
Speed
7.702 km/s
True Right ascension
20h 43m 32s
True Declination
0° 00' 00"
Sunlit
Object was in daylight at epoch
Visualization orbit readout
Latitude
Unknown
Longitude
Unknown
Altitude
Unknown
Speed
Unknown
Apparent Right ascension
Unknown
Apparent Declination
Unknown
Sunlit
N/A
Visualization observer readout
Local Sidereal Time
23:07:53
Azimuth
Unknown
Elevation
Unknown
Doppler factor
Unknown
Orbital elements
Apogee altitude
26,539.416 km
Perigee altitude
507.734 km
Semi-major axis
19,901.712 km
Eccentricity
0.65401
Inclination
7.1662°
RAAN
311.0575°
Arg. of periapsis
281.5406°
True anomaly
77.95416°
Mean anomaly
16.2222°
Eccentric anomaly
40.61564°
Mean motion
0.77305 °/min
Orbital period
465.69 mins
BSTAR
0.0062769
Loading maneuver chart data...
Computing Atmospheric mass density...
Loading historical data...
Loading historical data...
Loading historical data...
Loading historical data...
Loading historical data...
Loading historical data...
Loading historical data...

Documentation

Showing up to 5 results
|